Location: Newark
(45.8667°N, 9.7333°E)
Time: 11:37:27
(UTC+00:00)

Vanguard 2 Rocket - Pass Details

Date: 27 January 2020
Orbit: 553 x 3327 km, 32.9° (Epoch: 23 February)

Event Time Altitude Azimuth Distance (km) Brightness Sun altitude
Rises 10:01:47 0° 252° (WSW) 4,171 10.2 22.3°
Reaches altitude 10° 10:07:18 10° 221° (SW) 3,834 10.5 22.7°
Maximum altitude 10:10:08 11° 204° (SSW) 4,030 11.0 22.9°
Drops below altitude 10° 10:13:21 10° 189° (S) 4,487 11.6 23.1°
Sets 10:22:02 0° 162° (SSE) 6,293 12.6 23.6°
